RH
27 28 32 35 37 38 38 39 36 37 27 23 19 20 27 30 30 27 30 30 28 36 49 38 43 47 54 59 62 65 77 69 72 84 83 67 89 99 96 88 65 65 63
29 29 30 33 36 39 41 41 40 42 36 35 36 36 32 31 33 30 33 39 37 48 41 38 47 57 55 60 59 67 78 80 73 93 88 95 93 100 95 82 74 76 68
30 31 31 33 35 38 41 42 42 44 42 39 33 28 28 28 27 25 26 38 38 46 41 47 57 48 60 62 66 69 76 82 79 71 83 93 96 89 92 96 92 84 72
30 30 32 34 36 38 38 40 40 42 44 41 42 47 50 53 52 47 43 35 37 40 45 52 50 59 60 60 66 69 70 74 80 82 75 71 90 86 87 76 79 90 74
33 36 34 35 36 37 38 40 41 45 47 47 49 50 51 53 50 46 44 38 40 42 46 54 60 59 63 66 65 67 73 75 78 83 84 87 79 72 90 93 87 81 94
39 35 34 36 38 39 40 42 45 48 51 53 54 55 56 56 56 56 54 51 47 43 52 58 62 64 67 68 70 73 73 74 76 79 83 85 85 81 84 83 74 80 83
45 42 40 41 42 43 46 48 50 53 55 56 57 58 58 58 60 61 62 63 61 56 54 60 65 67 68 71 72 73 75 76 77 77 81 82 83 83 87 84 81 80 75
55 52 48 47 49 52 53 55 58 60 62 62 63 64 62 62 62 65 66 66 67 66 65 65 66 68 70 72 74 76 76 74 74 75 74 77 79 80 81 84 86 84 71
72 67 54 55 60 61 63 65 66 66 64 64 67 64 60 56 64 65 63 65 68 69 67 69 70 70 74 75 76 77 77 76 76 76 76 77 77 78 81 84 88 84 86
81 75 64 67 70 73 74 71 69 68 65 66 62 63 54 54 57 58 60 60 64 71 72 74 76 76 77 78 78 78 78 78 77 76 75 76 76 76 77 78 79 78 80
90 87 75 74 77 80 77 69 62 58 57 60 54 54 52 52 53 56 59 57 53 56 68 76 80 82 81 81 80 80 78 77 77 78 79 78 78 78 78 76 74 76 81
90 82 74 76 80 78 78 77 69 62 58 56 56 54 53 52 52 57 58 55 56 58 71 79 86 86 85 85 85 84 83 81 80 80 80 80 79 80 78 78 78 79 80
91 81 78 78 78 78 79 80 72 66 62 59 56 56 54 57 58 57 53 50 52 55 59 70 82 88 89 88 88 86 86 84 82 81 81 81 81 82 81 76 78 82 81
84 85 89 87 86 85 83 80 69 65 65 63 62 61 58 61 61 60 58 64 72 70 64 75 84 89 91 91 90 89 86 83 82 81 82 83 84 83 83 85 81 77 76
88 89 95 96 90 82 77 74 66 67 68 68 65 63 61 64 70 69 72 81 82 75 75 86 87 89 93 91 88 91 96 99 98 96 94 94 91 84 82 92 94 95 94
87 86 86 88 84 78 73 71 70 71 72 73 74 67 64 71 76 78 85 78 74 81 86 90 94 96 91 88 90 88 96 100 99 96 92 90 86 86 75 75 84 93 98
94 88 81 79 76 74 72 77 81 81 78 79 77 74 72 74 73 81 84 83 85 89 93 95 98 99 98 92 89 89 96 98 98 97 94 92 85 76 79 80 76 78 89
91 83 83 85 79 71 76 78 81 82 83 84 82 78 78 81 81 82 82 84 90 100 100 100 100 99 98 89 87 85 94 99 97 95 93 93 91 88 84 83 84 86 79
78 77 79 80 76 77 77 77 82 82 85 86 81 79 81 84 87 86 82 84 100 100 100 95 96 95 93 91 86 85 96 97 93 91 92 94 94 90 82 83 93 97 95
65 68 62 61 70 73 67 76 77 80 86 82 80 81 80 85 86 81 82 87 100 100 100 96 94 93 91 88 89 88 94 97 96 88 83 77 73 70 73 85 96 97 93
57 54 61 63 58 60 62 69 70 76 71 74 76 76 81 82 82 81 84 95 98 100 100 100 98 92 91 90 84 84 92 96 96 95 94 83 73 69 66 66 69 82 84
58 55 57 54 53 55 62 66 69 61 68 64 74 78 75 79 80 84 84 96 100 100 100 99 95 88 87 87 83 78 78 81 93 95 92 96 76 71 78 84 91 85 77
57 57 58 58 56 58 62 66 63 66 64 70 77 74 70 77 80 92 99 100 100 100 98 97 93 91 88 87 82 76 76 77 86 95 78 70 82 78 72 69 68 67 68
60 59 60 60 62 66 66 65 67 74 71 76 79 84 93 96 98 90 94 100 100 100 100 97 96 88 88 88 86 89 98 98 90 86 97 96 80 72 71 72 71 68 66
64 66 67 67 69 70 72 77 77 75 83 91 98 100 100 100 99 100 99 100 97 96 92 87 83 94 92 92 90 94 97 96 97 96 96 85 82 81 78 77 76 76 76
78 77 76 78 82 85 89 84 80 85 94 100 100 100 99 100 100 100 100 93 80 76 71 68 74 87 89 86 91 91 90 94 84 96 92 89 86 85 83 81 81 79 78
Wind_Speed
17 17 16 13 11 12 15 16 18 19 21 23 25 23 23 22 22 24 25 26 28 27 26 30 30 31 31 30 31 32 28 24 30 20 27 26 23 34 36 37 37 34 34
9 17 16 13 12 11 12 13 15 16 18 18 18 16 17 17 19 23 24 25 26 24 25 27 28 28 30 29 30 29 28 18 26 17 18 5 7 12 26 31 36 36 39
11 11 15 12 9 10 10 10 11 12 14 15 16 17 16 20 24 25 26 27 26 23 25 23 23 26 26 27 26 24 24 22 20 20 8 4 4 19 10 26 33 33 33
9 13 14 10 8 7 6 7 9 10 11 12 14 15 14 16 19 21 23 25 24 25 26 23 24 22 24 24 24 21 23 21 22 18 8 17 15 4 7 18 24 31 32
9 11 12 9 7 5 5 6 7 9 10 11 11 12 13 13 16 18 21 24 25 26 26 26 25 25 23 22 24 25 22 20 20 18 19 18 14 22 14 10 11 31 21
8 14 12 9 7 4 3 4 5 6 8 9 9 10 11 14 17 18 21 23 25 27 27 26 26 25 21 23 24 23 22 22 21 22 18 17 11 16 12 10 23 21 29
8 10 12 9 5 3 2 3 5 7 8 9 10 10 11 12 14 16 19 22 25 27 28 28 26 25 26 25 24 24 23 22 22 23 23 20 20 20 20 21 21 14 31
7 9 12 9 6 3 1 3 4 6 7 8 10 10 11 13 15 16 18 20 21 23 25 26 27 28 27 26 25 24 24 23 23 24 25 26 22 21 22 21 20 14 17
7 9 12 8 4 1 2 4 6 7 8 10 11 13 14 15 17 18 19 20 21 20 21 25 27 28 27 26 27 26 26 25 24 24 25 26 25 23 23 23 22 20 12
5 8 10 8 2 3 5 6 7 9 10 11 13 14 16 16 17 19 20 20 22 22 24 25 25 28 28 26 26 27 26 26 27 26 25 26 26 25 24 25 26 25 25
4 8 11 6 1 2 7 9 10 11 12 13 15 16 17 17 18 20 20 22 24 25 25 26 27 27 28 27 27 28 28 28 28 27 27 28 28 29 26 25 26 27 25
5 11 9 6 5 4 8 11 13 13 14 15 17 17 18 19 19 20 22 23 25 25 25 25 26 27 28 28 28 29 28 30 31 31 29 29 27 29 28 26 26 26 25
3 3 5 6 1 4 8 11 14 16 17 18 19 20 20 20 21 23 23 24 26 28 29 28 28 28 28 29 29 30 31 31 32 32 31 32 29 30 29 29 28 26 27
1 2 6 5 4 5 9 14 17 17 18 19 20 22 22 22 23 24 24 25 26 28 30 28 29 30 30 30 30 30 31 32 33 33 33 33 31 33 32 30 29 29 29
4 5 3 6 6 12 15 17 19 18 19 21 21 23 23 23 23 24 25 26 26 27 28 27 30 30 30 29 28 30 32 32 34 34 34 34 33 35 36 34 31 28 27
4 4 7 9 14 17 19 19 20 20 20 21 23 23 23 23 24 25 26 28 29 28 27 28 29 30 29 28 31 32 34 34 33 35 34 34 34 35 36 38 39 39 34
4 6 13 16 19 20 20 21 20 22 22 23 23 23 23 24 26 27 28 28 28 28 28 28 28 30 31 30 31 33 35 34 33 33 34 35 33 35 34 34 37 38 38
6 14 18 20 21 21 21 21 20 22 22 24 23 23 23 26 28 29 30 30 29 27 27 28 28 30 32 31 33 34 35 32 33 33 34 35 36 35 34 34 35 36 37
19 22 22 24 24 23 22 22 22 23 24 25 24 23 25 28 30 31 32 32 29 28 27 26 29 30 34 32 33 34 33 32 34 34 35 35 36 36 35 36 35 34 36
23 25 25 24 24 22 22 22 24 24 26 27 26 25 26 28 31 32 33 32 29 28 26 29 30 30 33 34 31 32 32 31 30 31 32 33 35 37 37 36 33 31 35
21 24 24 22 23 24 23 24 25 25 26 25 25 26 27 29 31 32 32 31 31 30 28 29 31 32 30 33 31 31 33 30 31 31 28 30 34 37 38 39 38 39 41
22 24 24 24 24 24 22 25 25 27 24 25 24 25 31 30 31 31 30 29 28 27 27 27 31 30 30 30 31 34 34 35 33 33 34 32 38 42 43 43 42 43 44
22 23 25 27 26 24 22 24 28 25 24 24 27 33 33 31 30 28 28 27 25 23 25 25 27 31 31 32 32 34 34 36 38 34 39 45 44 42 44 42 41 42 39
25 25 23 24 27 25 24 27 28 25 28 30 32 31 30 28 26 26 26 25 23 24 24 25 24 29 33 31 32 34 35 32 36 39 38 34 40 39 38 37 35 34 35
26 25 25 27 28 26 26 25 26 29 29 27 26 26 24 25 26 26 26 25 25 25 26 26 29 28 30 32 38 40 38 37 40 42 32 29 27 27 27 28 29 31 31
27 27 28 27 28 27 27 30 31 29 26 25 23 22 22 23 24 24 26 24 23 23 28 31 29 31 33 35 37 37 39 41 38 34 26 26 26 26 28 28 30 31 33
Wind_Direction
129 120 111 98 81 65 55 48 44 37 33 30 24 22 22 18 15 14 14 11 8 9 7 0 359 359 357 356 356 355 355 353 350 353 327 320 280 253 251 251 241 242 243
125 121 111 97 80 68 57 49 45 37 32 31 28 23 11 7 8 7 8 7 6 8 0 359 357 356 353 353 354 360 354 348 2 350 309 322 303 261 247 237 239 245 243
136 125 114 103 93 76 63 52 44 40 28 25 18 15 13 6 1 360 356 356 358 357 356 359 355 348 349 347 350 353 354 342 342 349 300 323 325 346 311 251 245 246 243
129 129 123 114 105 86 63 49 38 32 23 19 20 22 14 1 352 347 346 345 349 348 350 353 348 350 341 344 342 339 339 338 328 340 328 314 312 323 319 312 309 257 243
142 135 135 130 118 95 55 36 30 26 16 16 14 6 360 351 342 344 340 341 340 342 343 343 344 340 342 336 332 331 331 327 319 315 313 311 309 283 256 282 318 331 294
133 140 143 145 128 110 67 38 19 18 6 5 4 359 351 343 339 340 338 337 334 335 336 338 335 336 330 328 326 324 320 316 310 304 301 295 290 299 296 304 296 299 298
147 154 153 146 141 124 45 17 354 0 352 348 348 348 340 334 331 331 330 328 327 329 329 331 329 324 323 321 318 316 313 311 306 302 297 293 284 283 281 286 292 293 297
163 164 164 166 166 153 265 325 337 338 337 336 339 331 325 322 321 323 322 318 318 318 320 320 316 318 317 316 314 310 307 306 301 297 294 291 287 282 280 277 290 294 287
182 178 169 166 160 186 314 327 324 328 331 333 329 327 321 324 321 318 318 318 316 314 310 310 311 311 311 311 309 306 303 301 299 295 293 290 288 285 280 278 272 272 283
192 162 142 132 129 324 322 317 325 334 333 327 322 320 321 322 317 315 315 315 312 310 308 309 308 307 307 306 304 302 300 298 295 293 290 288 288 287 283 276 273 267 275
135 151 127 129 181 283 312 327 335 339 335 330 324 321 322 321 319 316 315 315 314 313 309 308 306 303 303 303 300 297 296 295 294 291 288 285 286 285 282 279 276 273 269
142 142 145 162 176 305 333 336 334 333 332 329 325 321 321 323 321 318 316 317 315 313 308 305 301 299 298 298 297 295 292 291 290 288 286 283 283 280 279 278 275 275 274
95 129 156 152 142 329 329 324 327 325 327 327 325 320 321 323 321 319 318 319 319 317 313 308 302 300 298 296 294 291 290 287 284 284 282 280 279 276 275 274 272 273 271
126 191 68 43 355 330 321 320 321 321 324 323 321 319 321 321 319 319 319 317 314 310 311 305 300 297 297 295 292 290 287 283 281 280 278 276 274 272 271 269 269 269 268
55 40 17 359 341 324 320 318 315 315 319 318 318 317 320 319 316 317 316 310 305 307 308 304 301 299 296 294 294 291 287 285 283 281 279 276 274 275 271 267 265 261 258
341 340 334 322 314 312 311 312 310 310 313 312 312 316 319 315 313 315 311 311 311 310 307 302 299 297 296 296 297 295 292 287 285 285 283 281 279 276 277 273 269 266 264
291 299 298 298 303 305 306 303 307 308 307 309 312 314 314 312 313 312 311 310 309 309 305 302 299 296 295 299 298 296 296 293 288 285 285 284 280 280 278 276 274 272 270
273 287 291 288 293 301 301 305 306 305 306 307 308 310 311 312 313 313 310 312 310 304 303 301 299 297 296 300 300 299 297 294 289 284 280 277 276 274 275 272 268 264 263
277 282 287 287 287 290 298 301 299 299 301 302 306 311 312 311 312 312 313 313 307 303 301 302 300 299 298 302 301 302 297 292 287 284 280 277 276 275 277 275 272 269 263
300 292 288 287 285 285 294 288 289 292 291 299 305 306 309 308 309 311 311 312 305 297 302 302 301 301 299 301 304 302 297 292 293 292 286 284 284 282 280 277 274 271 268
306 305 298 291 294 295 288 281 285 288 297 301 299 301 304 307 308 308 308 305 306 303 296 299 301 302 300 300 304 303 302 297 293 290 293 291 289 288 285 280 276 271 274
298 298 295 299 300 299 288 281 283 297 296 302 298 299 304 304 305 304 304 305 303 294 297 299 303 303 302 302 303 306 304 303 301 296 290 288 292 287 282 278 274 271 273
289 292 290 293 293 292 292 285 293 296 300 299 297 302 302 302 304 302 302 296 298 290 296 297 299 300 305 303 306 308 306 304 299 299 297 295 294 293 289 281 278 277 274
284 285 284 287 286 284 284 286 292 293 298 296 299 300 298 300 298 298 297 291 290 291 290 293 294 304 303 305 308 304 302 305 305 299 294 297 299 295 288 285 280 273 267
281 279 279 282 281 284 283 283 287 292 290 291 289 288 287 290 295 294 290 288 291 289 293 307 305 303 303 305 307 309 312 310 306 312 311 306 300 293 288 283 280 276 272
278 278 278 276 278 281 280 284 288 290 286 283 283 282 287 287 287 289 291 293 294 298 306 306 304 304 304 307 310 313 311 313 317 320 310 300 294 290 288 283 282 278 273